EW4077 Weather Reports


Display with metric or nautical units.
time (UTC)temp
F
wind
direction
speed
MPH
gust
MPH
rain 1hr
in
rain 24hr
in
rain mn
in
humidity
%
barometer
mb
20260503021540 61 259 10.0 16.0 0.00 0.00 0.00 84 1010.3
20260503020045 61 250 9.0 14.0 0.00 0.00 0.00 83 1010.3
20260503014542 62 236 8.0 14.0 0.00 0.00 0.00 82 1010.3
20260503013038 62 233 8.0 16.0 0.00 0.00 0.00 82 1010.4
20260503011541 62 217 12.0 17.0 0.00 0.00 0.00 81 1010.3
20260503010036 62 244 9.0 15.0 0.00 0.00 0.00 81 1010.4
20260503004536 62 240 8.0 15.0 0.00 0.00 0.00 80 1010.3
20260503003034 62 257 10.0 15.0 0.00 0.00 0.00 80 1010.3
20260503001538 62 214 8.0 15.0 0.00 0.00 0.00 80 1010.4
20260503000030 62 254 10.0 17.0 0.00 0.00 0.00 80 1010.6
20260502234528 62 222 10.0 19.0 0.00 0.00 0.00 79 1010.6
20260502233025 62 257 10.0 20.0 0.00 0.00 0.00 79 1010.7
20260502231523 62 215 11.0 20.0 0.00 0.00 0.00 78 1010.7
20260502230021 62 245 14.0 19.0 0.00 0.00 0.00 78 1010.9
20260502224516 62 219 12.0 19.0 0.00 0.00 0.00 78 1011.0
20260502223012 62 236 12.0 19.0 0.00 0.00 0.00 79 1011.4
20260502221508 62 234 14.0 20.0 0.00 0.00 0.00 78 1011.9
20260502220005 62 246 14.0 20.0 0.00 0.00 0.00 79 1012.2
20260502214501 62 250 10.0 20.0 0.00 0.00 0.00 81 1012.5
20260502213059 63 239 12.0 19.0 0.00 0.00 0.00 78 1012.5
20260502211602 63 200 8.0 16.0 0.00 0.00 0.00 78 1012.8
20260502210054 63 213 9.0 16.0 0.00 0.00 0.00 79 1013.0
20260502204553 63 230 8.0 16.0 0.00 0.00 0.00 79 1013.2
20260502203057 63 229 8.0 13.0 0.00 0.00 0.00 79 1013.2
20260502201551 64 204 5.0 9.0 0.00 0.00 0.00 79 1013.3
20260502200050 64 185 5.0 9.0 0.00 0.00 0.00 80 1013.5
20260502194549 64 235 5.0 9.0 0.00 0.00 0.00 81 1013.7
20260502193048 63 182 5.0 10.0 0.00 0.00 0.00 80 1014.0
20260502191547 64 144 4.0 9.0 0.00 0.00 0.00 80 1014.1
20260502190048 63 188 4.0 8.0 0.00 0.00 0.00 80 1014.3
20260502184542 63 215 3.0 7.0 0.00 0.00 0.00 81 1014.6
20260502183041 63 203 3.0 7.0 0.00 0.00 0.00 81 1014.7
20260502181537 62 150 3.0 6.0 0.00 0.00 0.00 82 1014.7
20260502163034 61 221 1.0 2.0 0.00 0.00 0.00 86 1015.0
20260502161522 60 156 0.0 2.0 0.00 0.00 0.00 88 1015.1
20260502151613 60 122 2.0 5.0 0.00 0.00 0.00 89 1014.9
20260502123057 59 167 3.0 5.0 0.00 0.00 0.00 90 1014.0
20260502121556 59 150 2.0 4.0 0.00 0.00 0.00 90 1013.8
20260502120110 59 209 2.0 5.0 0.00 0.00 0.00 90 1013.7
20260502114601 59 188 2.0 5.0 0.00 0.00 0.00 90 1013.6
20260502113055 59 250 4.0 5.0 0.00 0.00 0.00 90 1013.5
20260502111559 59 217 2.0 4.0 0.00 0.00 0.00 90 1013.4
20260502110052 59 253 2.0 4.0 0.00 0.00 0.00 90 1013.5
20260502104554 59 128 1.0 3.0 0.00 0.00 0.00 90 1013.4
20260502103050 59 228 2.0 4.0 0.00 0.00 0.00 90 1013.2
20260502101553 59 175 0.0 2.0 0.00 0.00 0.00 90 1013.2
20260502100109 59 230 0.0 2.0 0.00 0.00 0.00 90 1013.1
20260502070032 59 253 1.0 5.0 0.00 0.00 0.00 90 1014.1
20260502064529 59 253 2.0 6.0 0.00 0.00 0.00 89 1014.1
20260502063029 59 248 3.0 7.0 0.00 0.00 0.00 89 1014.1
20260502061528 59 245 4.0 6.0 0.00 0.00 0.00 89 1014.0
20260502060027 60 201 4.0 7.0 0.00 0.00 0.00 88 1013.8
20260502054527 60 249 4.0 6.0 0.00 0.00 0.00 88 1013.7
20260502053026 60 258 5.0 9.0 0.00 0.00 0.00 88 1013.9
20260502051545 60 245 5.0 8.0 0.00 0.00 0.00 87 1013.9
20260502050024 60 270 5.0 10.0 0.00 0.00 0.00 87 1013.7
20260502044523 60 188 6.0 11.0 0.00 0.00 0.00 87 1013.7
20260502043022 60 244 7.0 12.0 0.00 0.00 0.00 87 1013.5
20260502041524 60 254 7.0 12.0 0.00 0.00 0.00 86 1013.3
20260502040022 61 234 7.0 13.0 0.00 0.00 0.00 87 1013.2
20260502034535 61 244 8.0 12.0 0.00 0.00 0.00 87 1012.9
20260502033025 61 255 8.0 13.0 0.00 0.00 0.00 87 1012.7
20260502031519 61 242 9.0 14.0 0.00 0.00 0.00 86 1012.5
20260502030016 61 240 9.0 14.0 0.00 0.00 0.00 86 1012.3
20260502024516 61 233 11.0 14.0 0.00 0.00 0.00 86 1012.2
20260502023016 61 251 9.0 15.0 0.00 0.00 0.00 86 1012.2